Regional Weather Roundup
Issued by NWS Mobile, AL

Home | Current Version | Previous Version | Text Only | Print | Product List | Glossary On
Versions: 1 2 3 4 5 6 7 8 9 10 11 12 13 14 15 16 17 18 19 20 21 22 23 24 25 26 27 28
000
ASUS44 KMOB 240512
RWRMOB
REGIONAL WEATHER ROUNDUP
NATIONAL WEATHER SERVICE MOBILE AL
1200 AM CDT WED MAY 24 2017

NOTE: "FAIR" INDICATES FEW OR NO CLOUDS BELOW 12,000 FEET WITH NO
      SIGNIFICANT WEATHER AND/OR OBSTRUCTIONS TO VISIBILITY.

  * THESE STATIONS ARE PART OF THE UNIVERSITY OF SOUTH ALABAMA
    MESONET AND ARE NOT UNDER NWS OR FAA QUALITY CONTROL.

ALZ061>064-240600-
COASTAL ALABAMA

CITY           SKY/WX    TMP DP  RH WIND       PRES   REMARKS
MOBILE REG APT PTCLDY    72  69  90 SW3       29.73S
BROOKLEY FIELD PTCLDY    75  73  93 CALM      29.73S
USA CAMPUS*      N/A     72  70  94 CALM      29.73S
DOG RIVER*       N/A     73  72  94 W3        30.39R


CITY           SKY/WX    TMP DP  RH WIND       PRES   REMARKS
GULF SHORES    PTCLDY    75  75 100 SW9       29.72S

$$

ALZ051>060-240600-
INTERIOR SOUTHWEST AND SOUTH CENTRAL ALABAMA

CITY           SKY/WX    TMP DP  RH WIND       PRES   REMARKS
GREENVILLE     MOCLDY    70  65  84 VRB3      29.71S
EVERGREEN      MOCLDY    67  65  93 CALM      29.72R
ATMORE*          N/A     72  72 100 CALM      29.74S
ANDALUSIA/OPP  MOCLDY    70  66  87 CALM      29.70F
ANDALUSIA*       N/A     68  66  94 CALM      29.72S
FLORALA APT    MOCLDY    72  68  87 SW6       29.73S
FLORALA*         N/A     72  70  94 CALM      30.34R

$$

FLZ001>006-240600-
WESTERN FLORIDA PANHANDLE

CITY           SKY/WX    TMP DP  RH WIND       PRES   REMARKS
PENSACOLA      PTCLDY    77  71  82 SW13      29.72R
NAS PENSACOLA  MOCLDY    77  72  84 SW9G18    29.72R
MILTON         MOCLDY    73  73 100 SW7       29.72R
WHTNG S FIELD  MOCLDY    77  73  87 VRB5      29.71S


CITY           SKY/WX    TMP DP  RH WIND       PRES   REMARKS
JAY*             N/A     72  70  94 SW3       29.73R
DUKE FIELD     PTCLDY    73  70  89 SW7       29.72S
CRESTVIEW      MOCLDY    73  70  90 SW6       29.73R
VALPARAISO     MOCLDY    76  71  84 SW13      29.71S
DESTIN         MOCLDY    80  79  96 SW10G22   29.72S

$$

MSZ076-079-240600-
INTERIOR SOUTHEAST MISSISSIPPI

CITY           SKY/WX    TMP DP  RH WIND       PRES   REMARKS
LEAKESVILLE*   NOT AVBL
AGRICOLA*        N/A     70  68  94 CALM      29.73S

$$

MARINE OBSERVATIONS

STATION/POSITION TIME  TEMP    WIND        PRES    WAVE
                       AIR SEA DIR/SP/G            HT/PER
                 (UTC) (F)     (DEG/KT/KT) (MB)    (FT/S)
PASCAGOULA       0448   76     300/  4/  6 1006.6R
PETIT BOIS ISLND 0448   78     270/ 14/ 16 1007.3R
GRAND BAY        0330   78     260/  6     1007.0S
KATRINA CUT      0430   78     250/ 13     1006.4F
CEDAR POINT      0430   78     240/ 17     1006.4S
E DAUPHIN ISLAND 0400   78     220/ 13/ 15 1006.3R
MIDDLE BAY LIGHT 0400   77     230/ 16     1006.4
USCG MOBILE BAY  0448   75 79  300/  3/  4 1007.0R
STATE DOCKS      0448   74 77              1006.4R
MEAHER PARK      0430   77     230/ 10     1006.4R
FORT MORGAN      0448   78     240/ 16/ 19   N/A
12 S ORANGE BCH  0450   77 79  230/ 17/ 19 1006.1F   4/ 6
PENSACOLA BAY    0448   78 80              1006.5S
64 S DAUPHIN ISL 0450   77 78  210/ 14/ 17 1007.8R   3/ 5
67 S FORT MORGAN 0430   76     220/ 16     1008.1R

$$

SELECTED LOCATIONS ACROSS THE REGION

CITY           SKY/WX    TMP DP  RH WIND       PRES   REMARKS
NEW ORLEANS    CLOUDY    73  69  87 NW8       29.75S
GULFPORT       MOCLDY    73  70  90 N3        29.72F
PASCAGOULA AP  MOCLDY    73  69  87 CALM      29.73R
PASCAGOULA*    NOT AVBL
HATTIESBURG    PTCLDY    67  65  93 NW3       29.74F
LAUREL         NOT AVBL
MERIDIAN       CLOUDY    69  66  90 W3        29.72F
JACKSON        CLOUDY    66  63  90 S5        29.73S
MONTGOMERY     LGT RAIN  69  64  84 W5        29.70F
TROY           PTCLDY    67  67 100 CALM      29.72F
ASHFORD*         N/A     68  66  94 CALM      29.72S
DOTHAN         CLEAR     72  70  93 SW12      29.74S
PANAMA CITY    CLEAR     77  69  76 S13       29.72F

$$





USA.gov is the U.S. government's official web portal to all federal, state and local government web resources and services.